Weather History for Charlottesville, VA

Change the Weather History Date:

Friday, May 2, 2014

  Actual Average Record
Temperature  
Mean Temperature 61 °F 60 °F  
Max Temperature 70 °F 72 °F 91 °F (1986)
Min Temperature 51 °F 47 °F 36 °F (1978)
Degree Days  
Heating Degree Days 4 6  
Month to date heating degree days 4 13  
Since 1 July heating degree days 4535 4325  
Cooling Degree Days 0 1  
Month to date cooling degree days 3 2  
Year to date cooling degree days 12 23  
Growing Degree Days 11 (Base 50)    
Moisture  
Dew Point 37 °F    
Average Humidity 41    
Maximum Humidity 54    
Minimum Humidity 28    
Precipitation  
Precipitation 0.00 in 0.10 in 0.86 in (2004)
Month to date precipitation 0.00 0.20  
Year to date precipitation 13.41 12.69  
Sea Level Pressure  
Sea Level Pressure 29.84 in    
Wind  
Wind Speed 6 mph (WSW)    
Max Wind Speed 14 mph    
Max Gust Speed 20 mph    
Visibility 10 miles    
Events      
T = Trace of Precipitation, MM = Missing Value Source: NWS Daily Summary

Daily Weather History Graph

Daily Weather History Graph

Search for Another Location

Airport:

Trip Planner

Search our weather history database for the weather conditions in past years. The results will help you decide how hot, cold, wet, or windy it might be!

Date:

Astronomy

May. 02, 2014 Rise Set
Actual Time 6:16 AM EDT 8:05 PM EDT
Civil Twilight 5:47 AM EDT 8:34 PM EDT
Nautical Twilight 5:13 AM EDT 9:09 PM EDT
Astronomical Twilight 4:36 AM EDT 9:46 PM EDT
Moon 8:52 AM EDT (5/2) 11:25 PM EDT (5/2)
Length of Visible Light 14h 46m
Length of Day
13h 49m
Waxing Crescent, 12% of the Moon is Illuminated
May 2
Waxing Crescent
May 6
First Quarter
May 14
Full
May 21
Last Quarter
May 28
New

Hourly Weather History & Observations

Time (EDT) Temp. Dew Point Humidity Pressure Visibility Wind Dir Wind Speed Gust Speed Precip Events Conditions
12:53 AM 61.0 °F 39.0 °F 44% 29.81 in 10.0 mi Variable 3.5 mph - N/A   Overcast
1:53 AM 60.1 °F 37.0 °F 42% 29.82 in 10.0 mi Variable 4.6 mph - N/A   Mostly Cloudy
2:53 AM 59.0 °F 35.1 °F 41% 29.82 in 10.0 mi West 5.8 mph - N/A   Overcast
3:53 AM 57.9 °F 34.0 °F 41% 29.83 in 10.0 mi WNW 6.9 mph - N/A   Overcast
4:53 AM 57.0 °F 34.0 °F 42% 29.84 in 10.0 mi West 3.5 mph - N/A   Mostly Cloudy
5:53 AM 54.0 °F 34.0 °F 47% 29.84 in 10.0 mi Calm Calm - N/A   Clear
6:53 AM 52.0 °F 35.1 °F 53% 29.87 in 10.0 mi Calm Calm - N/A   Clear
7:53 AM 54.0 °F 37.9 °F 55% 29.88 in 10.0 mi Calm Calm - N/A   Clear
8:53 AM 59.0 °F 37.0 °F 44% 29.88 in 10.0 mi SW 4.6 mph - N/A   Clear
9:53 AM 61.0 °F 35.1 °F 38% 29.87 in 10.0 mi Variable 5.8 mph - N/A   Clear
10:53 AM 63.0 °F 37.0 °F 38% 29.86 in 10.0 mi West 11.5 mph 18.4 mph N/A   Clear
11:53 AM 63.0 °F 36.0 °F 37% 29.87 in 10.0 mi West 11.5 mph 18.4 mph N/A   Clear
12:20 PM 64.0 °F 37.0 °F 37% 29.87 in 10.0 mi West 11.5 mph 19.6 mph N/A   Scattered Clouds
12:53 PM 66.0 °F 39.0 °F 37% 29.85 in 10.0 mi West 11.5 mph 19.6 mph N/A   Scattered Clouds
1:53 PM 66.0 °F 37.0 °F 34% 29.82 in 10.0 mi Variable 3.5 mph - N/A   Scattered Clouds
2:53 PM 66.9 °F 36.0 °F 32% 29.80 in 10.0 mi Variable 6.9 mph - N/A   Partly Cloudy
3:53 PM 69.1 °F 36.0 °F 30% 29.79 in 10.0 mi Variable 3.5 mph - N/A   Scattered Clouds
4:53 PM 70.0 °F 39.0 °F 32% 29.78 in 10.0 mi SSE 11.5 mph 16.1 mph N/A   Mostly Cloudy
5:53 PM 66.0 °F 39.9 °F 38% 29.79 in 10.0 mi South 5.8 mph - N/A   Clear
6:53 PM 66.9 °F 37.0 °F 33% 29.81 in 10.0 mi South 9.2 mph - N/A   Scattered Clouds
7:53 PM 64.0 °F 39.0 °F 40% 29.81 in 10.0 mi South 6.9 mph - N/A   Clear
8:53 PM 64.0 °F 39.0 °F 40% 29.81 in 10.0 mi Calm Calm - N/A   Clear
9:53 PM 61.0 °F 39.9 °F 46% 29.85 in 10.0 mi NE 13.8 mph - N/A   Clear
10:53 PM 59.0 °F 39.0 °F 48% 29.87 in 10.0 mi NE 10.4 mph - N/A   Scattered Clouds
11:53 PM 57.0 °F 37.9 °F 49% 29.88 in 10.0 mi NE 5.8 mph - N/A   Clear